Wengen, Switzerland 16 day weather forecast

Slopes altitude range 945 m - 2970m

Number of lifts: 44 Pistes: 213km

In some cases the lift and piste totals shown are for the ski domain (e.g. Three Valleys) rather than individual resort (e.g. Courchevel)

Overview

The 16 day weather forecast is fully updated 4 times every day.

    • Sat 20 OCT 2018
    • Sat 20
    • -2C 7C
    • Sun 21 OCT 2018
    • Sun 21
    • -2C 6C
    • Mon 22 OCT 2018
    • Mon 22
    • -4C 4C
    • Tue 23 OCT 2018
    • Tue 23
    • -5C 3C
    • Wed 24 OCT 2018
    • Wed 24
    • -1C 4C
    • Thu 25 OCT 2018
    • Thu 25
    • -3C 8C
    • Fri 26 OCT 2018
    • Fri 26
    • -3C 5C
    • Sat 27 OCT 2018
    • Sat 27
    • -8C -4C
    • Sun 28 OCT 2018
    • Sun 28
    • -3C 0C
    • Mon 29 OCT 2018
    • Mon 29
    • -1C 2C
    • Tue 30 OCT 2018
    • Tue 30
    • -1C 9C
    • Wed 31 OCT 2018
    • Wed 31
    • 5C 13C
    • Thu 01 NOV 2018
    • Thu 01
    • 5C 10C
    • Fri 02 NOV 2018
    • Fri 02
    • 1C 6C
    • Sat 03 NOV 2018
    • Sat 03
    • 0C 10C
    • Sun 04 NOV 2018
    • Sun 04
    • 2C 13C

Date:

Time Type 0°C level Temp Chill Snow Cloud Speed Gust Dir Press
12:00 3469m 7°C 7_6 0cm 20% 6mph 6mph 1025mB
15:00 3521m 7°C 7_6 0cm 0% 6mph 6mph 1024mB
18:00 2251m 7°C 7_4 0cm 0% 4mph 5mph 1026mB
21:00 2175m -2°C -2_2 0cm 61% 2mph 3mph 1027mB
0:00 2258m -2°C -2_3 0cm 80% 3mph 4mph 1026mB
3:00 2241m -2°C -2_3 0cm 100% 3mph 5mph 1025mB
6:00 2230m -2°C -2_4 0cm 100% 4mph 6mph 1024mB
9:00 3655m -2°C -2_8 0cm 95% 8mph 9mph 1023mB
12:00 3662m 6°C 6_9 0cm 58% 9mph 9mph 1021mB
15:00 3599m 6°C 6_8 0cm 0% 8mph 9mph 1020mB
18:00 2182m 6°C 6_5 0cm 0% 5mph 6mph 1022mB
21:00 2066m -3°C -3_5 0cm 1% 5mph 5mph 1023mB
0:00 2039m -3°C -3_4 0cm 1% 4mph 5mph 1023mB
3:00 1928m -4°C -4_3 0cm 0% 3mph 4mph 1023mB
6:00 1875m -4°C -4_4 0cm 0% 4mph 5mph 1024mB
9:00 2934m -4°C -4_6 0cm 0% 6mph 6mph 1023mB
12:00 2889m 4°C 4_8 0cm 0% 8mph 8mph 1022mB
15:00 2607m 4°C 4_9 0cm 0% 9mph 9mph 1022mB
18:00 1768m 4°C 4_6 0cm 11% 6mph 7mph 1026mB
21:00 1781m -5°C -5_6 0cm 71% 6mph 7mph 1028mB
0:00 1957m -5°C -5_5 0cm 69% 5mph 6mph 1028mB
3:00 1891m -4°C -4_6 0cm 0% 6mph 7mph 1028mB
6:00 1792m -5°C -5_7 0cm 0% 7mph 7mph 1029mB
9:00 2582m -5°C -5_9 0cm 66% 9mph 10mph 1027mB
12:00 2775m 3°C 3_9 0cm 83% 9mph 10mph 1026mB
15:00 2639m 3°C 3_9 0cm 100% 9mph 10mph 1025mB
18:00 1933m 3°C 3_6 0cm 100% 6mph 7mph 1027mB
21:00 1954m -4°C -4_6 0cm 86% 6mph 7mph 1028mB
0:00 2050m -4°C -4_6 0cm 63% 6mph 7mph 1027mB
3:00 2275m -3°C -3_7 0cm 28% 7mph 8mph 1026mB
6:00 2397m -3°C -3_8 0cm 61% 8mph 10mph 1026mB
9:00 2951m -1°C -1_11 1cm 97% 11mph 13mph 1025mB
12:00 2992m 4°C 4_11 0cm 94% 11mph 13mph 1024mB
15:00 2899m 4°C 4_11 0cm 77% 11mph 13mph 1023mB
18:00 2893m 4°C 4_8 0cm 82% 8mph 10mph 1025mB
21:00 2296m -2°C -2_6 0cm 92% 6mph 7mph 1025mB
0:00 2120m -3°C -3_5 0cm 82% 5mph 6mph 1024mB
3:00 2126m -3°C -3_5 0cm 83% 5mph 6mph 1023mB
6:00 2070m -3°C -3_4 0cm 89% 4mph 5mph 1023mB
9:00 4061m -3°C -3_4 0cm 100% 4mph 5mph 1022mB
12:00 4022m 8°C 8_4 0cm 98% 4mph 4mph 1020mB
15:00 3978m 8°C 8_4 0cm 92% 4mph 4mph 1019mB
18:00 2109m 8°C 8_1 0cm 87% 1mph 2mph 1019mB
21:00 2178m -3°C -3_2 0cm 76% 2mph 2mph 1019mB
0:00 2190m -3°C -3_2 0cm 64% 2mph 3mph 1018mB
3:00 2164m -2°C -2_2 0cm 99% 2mph 3mph 1017mB
6:00 2106m -3°C -3_3 0cm 97% 3mph 4mph 1016mB
9:00 3518m -3°C -3_2 0cm 32% 2mph 2mph 1015mB
12:00 3180m 5°C 5_1 0cm 36% 1mph 2mph 1012mB
15:00 3033m 5°C 5_1 0cm 0% 1mph 2mph 1010mB
18:00 2061m 5°C 5_3 0cm 32% 3mph 4mph 1011mB
21:00 2480m -3°C -3_5 0cm 93% 5mph 6mph 1011mB
0:00 2405m -3°C -3_6 0cm 97% 6mph 7mph 1009mB
3:00 2317m -2°C -2_5 1cm 100% 5mph 6mph 1008mB
6:00 1969m -5°C -5_10 3cm 100% 10mph 11mph 1008mB
9:00 1486m -8°C -8_9 4cm 100% 9mph 10mph 1009mB
12:00 1470m -4°C -4_9 3cm 100% 9mph 10mph 1009mB
15:00 1362m -7°C -7_10 3cm 100% 10mph 11mph 1009mB
18:00 1155m -7°C -7_9 2cm 100% 9mph 11mph 1010mB
21:00 855m -1°C -1_3 1cm 100% 3mph 6mph 1013mB
0:00 424m -4°C -4_1 1cm 88% 1mph 2mph 1013mB
3:00 587m -3°C -3_1 0cm 100% 1mph 1mph 1013mB
6:00 555m -3°C -3_3 1cm 100% 3mph 4mph 1013mB
9:00 788m -3°C -3_6 1cm 98% 6mph 11mph 1013mB
12:00 874m 0°C 0_7 1cm 99% 7mph 14mph 1012mB
15:00 832m 0°C 0_8 2cm 100% 8mph 17mph 1013mB
18:00 696m 0°C 0_8 1cm 100% 8mph 20mph 1014mB
21:00 781m -2°C -2_9 3cm 100% 9mph 21mph 1015mB
0:00 810m -2°C -2_5 4cm 100% 5mph 15mph 1015mB
3:00 797m -1°C -1_5 1cm 100% 5mph 12mph 1015mB
6:00 818m -1°C -1_5 1cm 100% 5mph 12mph 1015mB
9:00 940m -1°C -1_5 2cm 100% 5mph 10mph 1017mB
12:00 1126m 2°C 2_5 0cm 99% 5mph 8mph 1018mB
15:00 1091m 1°C 1_4 1cm 99% 4mph 8mph 1019mB
18:00 1036m 1°C 1_2 0cm 96% 2mph 3mph 1022mB
21:00 1040m 0°C 0_1 1cm 88% 1mph 2mph 1025mB
0:00 656m -2°C -2_2 0cm 68% 2mph 2mph 1026mB
3:00 602m -2°C -2_2 0cm 40% 2mph 3mph 1026mB
6:00 616m -2°C -2_3 0cm 31% 3mph 3mph 1027mB
Afternoon 0mm 0 2913m 9°C 9_4 0cm 58% 4mph 4mph 1024mB
Morning 0mm 0 3309m 3°C 3_6 0cm 9% 6mph 9mph 1019mB
Afternoon 0.197917mm 0 3473m 13°C 13_3 0cm 81% 3mph 4mph 1008mB
Morning 0.338542mm 0.875 2466m 6°C 6_3 0cm 63% 3mph 3mph 1009mB
Afternoon 0.338542mm 0.1875 1639m 10°C 10_6 0cm 96% 6mph 13mph 1016mB
Morning 0.078125mm 0 1335m 2°C 2_3 0cm 81% 3mph 4mph 1023mB
Afternoon 0.00520833mm 0 1516m 6°C 6_4 0cm 42% 4mph 5mph 1027mB
Morning 0mm 0 824m 0°C 0_5 0cm 6% 5mph 6mph 1030mB
Afternoon 0mm 0 2483m 10°C 10_5 0cm 1% 5mph 6mph 1027mB
Morning 0mm 0 2854m 2°C 2_5 0cm 5% 5mph 6mph 1024mB
Afternoon 0mm 0 3003m 13°C 13_5 0cm 32% 5mph 6mph 1019mB
Morning 0mm 0 2742m 5°C 5_6 0cm 5% 6mph 6mph 1017mB

16 day outlook at a glance

Forecast issued: 21/10/2018 02:29:41

Chat

Your comments and questions. In a resort? Let us know what it's like!


Characters left 250

For terms and conditions see Readers Comments on the Cookie and privacy policy page.